CW2551 Weather Reports


Display with metric or nautical units.
time (UTC)temp
F
wind
direction
speed
MPH
gust
MPH
rain 1hr
in
rain 24hr
in
rain mn
in
humidity
%
barometer
mb
20260505050604 65 292 0.0 0.0 0.00 0.00 0.00 65 1010.1
20260505050106 65 292 0.0 0.0 0.00 0.00 0.00 64 1010.1
20260505041104 67 264 0.0 0.0 0.00 0.00 0.00 60 1009.2
20260505041023 68 264 0.0 0.0 0.00 0.00 0.00 59 1009.1
20260505040606 68 264 0.0 0.0 0.00 0.00 0.00 59 1009.1
20260505040106 68 263 0.0 0.0 0.00 0.00 0.00 59 1008.9
20260505040022 69 263 0.0 0.0 0.00 0.00 0.00 58 1008.9
20260505035604 69 263 0.0 0.0 0.00 0.00 0.00 58 1008.9
20260505035104 69 263 0.0 0.0 0.00 0.00 0.00 58 1008.8
20260505035023 70 263 0.0 0.0 0.00 0.00 0.00 57 1008.7
20260505034604 70 263 0.0 0.0 0.00 0.00 0.00 57 1008.7
20260505034103 70 263 0.0 0.0 0.00 0.00 0.00 57 1008.6
20260505034022 70 254 0.0 0.0 0.00 0.00 0.00 57 1008.5
20260505033103 71 254 0.0 0.0 0.00 0.00 0.00 56 1008.4
20260505032604 71 286 0.0 0.0 0.00 0.00 0.00 56 1008.3
20260505032103 71 255 0.0 0.0 0.00 0.00 0.00 55 1008.2
20260505032021 72 272 0.0 1.0 0.00 0.00 0.00 55 1008.1
20260505031604 72 272 0.0 1.0 0.00 0.00 0.00 55 1008.1
20260505031104 72 277 0.0 0.0 0.00 0.00 0.00 55 1008.0
20260505031026 72 265 0.0 0.0 0.00 0.00 0.00 53 1007.9
20260505030604 72 265 0.0 0.0 0.00 0.00 0.00 53 1007.9
20260505025604 73 270 0.0 3.0 0.00 0.00 0.00 53 1007.9
20260505025104 73 274 0.0 3.0 0.00 0.00 0.00 53 1007.7
20260505025022 73 265 0.0 3.0 0.00 0.00 0.00 52 1007.7
20260505024104 74 248 0.0 5.0 0.00 0.00 0.00 52 1007.6
20260505024021 74 281 1.0 7.0 0.00 0.00 0.00 52 1007.6
20260505023604 74 281 1.0 7.0 0.00 0.00 0.00 52 1007.6
20260505023104 74 285 1.0 7.0 0.00 0.00 0.00 51 1007.5
20260505022604 75 275 0.0 0.0 0.00 0.00 0.00 50 1007.5
20260505022104 75 300 0.0 3.0 0.00 0.00 0.00 47 1007.5
20260505022020 75 312 0.0 0.0 0.00 0.00 0.00 45 1007.4
20260505021604 75 312 0.0 0.0 0.00 0.00 0.00 45 1007.4
20260505021104 75 228 0.0 3.0 0.00 0.00 0.00 45 1007.4
20260505021023 76 190 1.0 7.0 0.00 0.00 0.00 44 1007.3
20260505020022 76 309 0.0 7.0 0.00 0.00 0.00 42 1007.3
20260505015104 77 273 2.0 10.0 0.00 0.00 0.00 41 1007.2
20260505015022 77 264 1.0 7.0 0.00 0.00 0.00 41 1007.2
20260505014604 77 264 1.0 7.0 0.00 0.00 0.00 41 1007.2
20260505014103 77 296 1.0 7.0 0.00 0.00 0.00 40 1007.4
20260505013605 78 268 1.0 8.0 0.00 0.00 0.00 40 1007.4
20260505013104 78 316 0.0 2.0 0.00 0.00 0.00 40 1007.4
20260505013023 78 333 1.0 8.0 0.00 0.00 0.00 39 1007.5
20260505012604 78 333 1.0 8.0 0.00 0.00 0.00 39 1007.5
20260505012104 78 346 4.0 10.0 0.00 0.00 0.00 38 1007.6
20260505012021 79 43 2.0 10.0 0.00 0.00 0.00 38 1007.6
20260505011604 79 43 2.0 10.0 0.00 0.00 0.00 38 1007.6
20260505011104 79 328 3.0 10.0 0.00 0.00 0.00 36 1007.6
20260505011021 79 10 3.0 9.0 0.00 0.00 0.00 37 1007.5
20260505010103 79 316 3.0 10.0 0.00 0.00 0.00 36 1007.6
20260505005604 80 348 5.0 10.0 0.00 0.00 0.00 35 1007.6
20260505005104 80 5 1.0 9.0 0.00 0.00 0.00 37 1007.6
20260505005021 80 324 1.0 10.0 0.00 0.00 0.00 37 1007.5
20260505004604 80 324 1.0 10.0 0.00 0.00 0.00 37 1007.5
20260505004104 80 345 1.0 8.0 0.00 0.00 0.00 36 1007.4
20260505004023 80 307 1.0 9.0 0.00 0.00 0.00 37 1007.3
20260505003604 80 307 1.0 9.0 0.00 0.00 0.00 37 1007.3
20260505003104 80 359 2.0 9.0 0.00 0.00 0.00 41 1007.3
20260505003024 80 265 1.0 7.0 0.00 0.00 0.00 41 1007.1
20260505002604 80 265 1.0 7.0 0.00 0.00 0.00 41 1007.1
20260505002104 80 341 1.0 7.0 0.00 0.00 0.00 42 1007.1
20260505002021 80 277 2.0 6.0 0.00 0.00 0.00 44 1007.1
20260505001604 80 277 2.0 6.0 0.00 0.00 0.00 44 1007.1
20260505001104 80 258 1.0 5.0 0.00 0.00 0.00 43 1007.1
20260505001022 81 264 1.0 7.0 0.00 0.00 0.00 43 1007.0
20260505000105 81 242 0.0 3.0 0.00 0.00 0.00 45 1007.0
20260505000024 81 349 0.0 8.0 0.00 0.00 0.00 46 1007.1
20260504235603 81 349 0.0 8.0 0.00 0.00 0.00 46 1007.1
20260504235104 80 256 0.0 3.0 0.00 0.04 0.00 47 1007.1
20260504234604 80 261 1.0 8.0 0.00 0.04 0.00 46 1007.1
20260504234023 80 260 2.0 12.0 0.00 0.04 0.00 45 1007.1
20260504233604 80 260 2.0 12.0 0.00 0.04 0.00 45 1007.1
20260504233104 81 232 1.0 7.0 0.00 0.04 0.00 46 1007.1
20260504233025 80 273 2.0 13.0 0.00 0.04 0.00 45 1007.0
20260504232605 80 273 2.0 13.0 0.00 0.04 0.00 45 1007.0
20260504232104 80 258 3.0 9.0 0.00 0.04 0.00 46 1007.1
20260504232021 81 211 1.0 8.0 0.00 0.04 0.00 45 1007.2
20260504231604 81 211 1.0 8.0 0.00 0.04 0.00 45 1007.2
20260504231104 81 356 2.0 6.0 0.00 0.04 0.00 45 1007.3
20260504230604 81 337 1.0 6.0 0.00 0.04 0.00 44 1007.3
20260504230104 81 210 1.0 5.0 0.00 0.04 0.00 45 1007.4
20260504225605 81 352 2.0 10.0 0.00 0.04 0.00 46 1007.4
20260504225104 80 334 1.0 8.0 0.00 0.04 0.00 47 1007.5
20260504225021 80 265 0.0 3.0 0.00 0.04 0.00 47 1007.6
20260504224604 80 265 0.0 3.0 0.00 0.04 0.00 47 1007.6
20260504224021 81 287 0.0 7.0 0.00 0.04 0.00 46 1007.8
20260504223604 81 287 0.0 7.0 0.00 0.04 0.00 46 1007.8
20260504223104 81 301 1.0 6.0 0.00 0.04 0.00 48 1007.9
20260504223024 80 341 2.0 7.0 0.00 0.04 0.00 46 1007.9
20260504222604 80 341 2.0 7.0 0.00 0.04 0.00 46 1007.9
20260504222104 80 334 0.0 3.0 0.00 0.04 0.00 47 1008.0
20260504222021 80 315 1.0 5.0 0.00 0.04 0.00 50 1008.1
20260504221604 80 315 1.0 5.0 0.00 0.04 0.00 50 1008.1
20260504221104 80 348 2.0 6.0 0.00 0.04 0.00 47 1008.2
20260504221021 79 243 1.0 3.0 0.00 0.04 0.00 50 1008.3
20260504220604 79 243 1.0 3.0 0.00 0.04 0.00 50 1008.3
20260504220025 78 242 0.0 0.0 0.00 0.04 0.00 52 1008.4
20260504215603 78 242 0.0 0.0 0.00 0.04 0.00 52 1008.4
20260504214604 79 271 0.0 6.0 0.00 0.04 0.00 51 1008.6
20260504214106 78 222 0.0 2.0 0.00 0.04 0.00 52 1008.5
20260504214020 78 229 1.0 3.0 0.00 0.04 0.00 52 1008.6
20260504213604 78 229 1.0 3.0 0.00 0.04 0.00 52 1008.6
20260504213103 78 286 0.0 2.0 0.00 0.04 0.00 51 1008.6
20260504212604 79 322 1.0 6.0 0.00 0.04 0.00 53 1008.7
20260504212103 79 11 2.0 3.0 0.00 0.04 0.00 54 1008.7
20260504212022 78 296 1.0 3.0 0.00 0.04 0.00 53 1008.8
20260504211103 78 297 0.0 0.0 0.00 0.04 0.00 55 1008.9
20260504211023 78 309 1.0 5.0 0.00 0.04 0.00 52 1009.0
20260504210104 78 356 3.0 8.0 0.00 0.04 0.00 52 1009.1
20260504210024 79 0 2.0 6.0 0.00 0.04 0.00 53 1009.1
20260504205603 79 0 2.0 6.0 0.00 0.04 0.00 53 1009.1
20260504205104 77 351 0.0 5.0 0.00 0.04 0.00 54 1009.2
20260504205023 77 351 3.0 8.0 0.00 0.04 0.00 53 1009.3
20260504204604 77 351 3.0 8.0 0.00 0.04 0.00 53 1009.3
20260504204023 76 131 0.0 3.0 0.00 0.04 0.00 56 1009.4
20260504203103 76 2 0.0 3.0 0.00 0.04 0.00 55 1009.5
20260504203023 76 357 1.0 9.0 0.00 0.04 0.00 55 1009.5
20260504202604 76 357 1.0 9.0 0.00 0.04 0.00 55 1009.5
20260504202104 76 351 1.0 3.0 0.00 0.04 0.00 56 1009.6
20260504202021 76 50 1.0 3.0 0.00 0.04 0.00 56 1009.7
20260504201604 76 50 1.0 3.0 0.00 0.04 0.00 56 1009.7
20260504201104 76 33 1.0 6.0 0.00 0.04 0.00 57 1009.8
20260504201021 76 37 3.0 8.0 0.00 0.04 0.00 57 1009.7
20260504200104 76 30 3.0 6.0 0.00 0.04 0.00 57 1009.8
20260504200024 75 343 1.0 9.0 0.00 0.04 0.00 60 1009.8
20260504195604 75 343 1.0 9.0 0.00 0.04 0.00 60 1009.8
20260504195104 74 347 2.0 6.0 0.00 0.04 0.00 58 1009.8
20260504195021 74 355 0.0 6.0 0.00 0.04 0.00 63 1009.8
20260504194604 74 355 0.0 6.0 0.00 0.04 0.00 63 1009.8
20260504194104 74 0 3.0 8.0 0.00 0.04 0.00 59 1010.0
20260504193604 75 352 2.0 3.0 0.00 0.04 0.00 58 1010.0
20260504193103 73 325 1.0 5.0 0.00 0.04 0.00 61 1010.0
20260504193023 73 307 0.0 9.0 0.00 0.04 0.00 61 1010.2
20260504192605 73 307 0.0 9.0 0.00 0.04 0.00 61 1010.2
20260504192021 74 11 3.0 10.0 0.00 0.04 0.00 61 1010.3
20260504191604 74 11 3.0 10.0 0.00 0.04 0.00 61 1010.3
20260504191103 74 3 2.0 6.0 0.00 0.04 0.00 63 1010.4
20260504191022 72 281 0.0 3.0 0.00 0.04 0.00 64 1010.5
20260504190603 72 281 0.0 3.0 0.00 0.04 0.00 64 1010.5
20260504190022 72 321 1.0 6.0 0.00 0.04 0.00 63 1010.7
20260504185604 72 321 1.0 6.0 0.00 0.04 0.00 63 1010.7
20260504185022 71 5 1.0 5.0 0.00 0.04 0.00 64 1010.7
20260504184104 71 3 2.0 5.0 0.00 0.04 0.00 64 1010.7
20260504184021 71 32 1.0 3.0 0.00 0.04 0.00 61 1010.7
20260504183605 71 32 1.0 3.0 0.00 0.04 0.00 61 1010.7
20260504182604 70 19 0.0 3.0 0.00 0.04 0.00 65 1010.9
20260504182104 70 23 2.0 6.0 0.00 0.04 0.00 65 1010.9
20260504182021 71 122 2.0 3.0 0.00 0.04 0.00 62 1010.9
20260504181604 71 122 2.0 3.0 0.00 0.04 0.00 62 1010.9
20260504180603 70 30 2.0 6.0 0.00 0.04 0.00 65 1010.9
20260504180105 71 34 2.0 5.0 0.00 0.04 0.00 63 1011.0
20260504180023 71 3 3.0 6.0 0.00 0.04 0.00 63 1011.0
20260504175603 71 3 3.0 6.0 0.00 0.04 0.00 63 1011.0
20260504175104 71 5 0.0 3.0 0.00 0.04 0.00 64 1011.0
20260504175022 70 5 0.0 0.0 0.00 0.04 0.00 65 1011.1
20260504174603 70 5 0.0 0.0 0.00 0.04 0.00 65 1011.1
20260504174104 70 5 0.0 0.0 0.00 0.04 0.00 64 1011.1
20260504174021 70 5 2.0 7.0 0.00 0.04 0.00 65 1011.1
20260504173104 70 13 1.0 6.0 0.00 0.04 0.00 66 1011.2
20260504173024 69 15 1.0 7.0 0.00 0.04 0.00 67 1011.2
20260504172604 69 15 1.0 7.0 0.00 0.04 0.00 67 1011.2
20260504172104 69 24 1.0 3.0 0.00 0.04 0.00 67 1011.2
20260504172021 68 11 1.0 3.0 0.00 0.04 0.00 68 1011.3
20260504171604 68 11 1.0 3.0 0.00 0.04 0.00 68 1011.3
20260504171023 68 19 0.0 0.0 0.00 0.04 0.00 69 1011.3
20260504170604 68 19 0.0 0.0 0.00 0.04 0.00 69 1011.3
20260504170104 67 19 0.0 3.0 0.00 0.04 0.00 70 1011.3
20260504160106 63 105 0.0 0.0 0.00 0.04 0.00 78 1011.6
20260504150604 59 107 1.0 2.0 0.00 0.04 0.00 88 1011.5
20260504150105 58 117 0.0 0.0 0.00 0.04 0.00 90 1011.5
20260504141106 53 121 0.0 0.0 0.00 0.04 0.00 92 1011.4
20260504141021 53 121 0.0 0.0 0.00 0.04 0.00 91 1011.3
20260504140603 53 121 0.0 0.0 0.00 0.04 0.00 91 1011.3
20260504140105 53 121 0.0 0.0 0.00 0.04 0.00 91 1011.3
20260504120107 54 121 0.0 0.0 0.00 0.04 0.00 90 1010.4
20260504110605 55 121 0.0 0.0 0.00 0.04 0.00 90 1010.3
20260504110107 55 121 0.0 0.0 0.00 0.04 0.00 90 1010.3
20260504100604 56 121 0.0 0.0 0.00 0.04 0.00 89 1010.0
20260504100106 56 121 0.0 0.0 0.00 0.04 0.00 88 1010.0
20260504090104 57 121 0.0 0.0 0.00 0.04 0.00 88 1009.8
20260504081605 58 121 0.0 0.0 0.00 0.04 0.00 87 1010.0
20260504081104 58 121 0.0 0.0 0.00 0.04 0.00 87 1010.0
20260504081024 58 121 0.0 0.0 0.00 0.04 0.00 87 1010.0
20260504080605 58 121 0.0 0.0 0.00 0.04 0.00 87 1010.0
20260504080105 59 121 0.0 0.0 0.00 0.04 0.00 87 1009.9
20260504070107 60 121 0.0 0.0 0.00 0.04 0.00 86 1009.9